{"data":{"norad_id":56008,"epoch":"2026-09-20T19:39:28.444608Z","epoch_age_seconds":78538,"freshness":"FRESH","line1":"1 56008U 23042Y   26263.81907922  .00000858  00000+0  40715-4 0  9998","line2":"2 56008  43.0057  37.4617 0001134 267.7026  92.3696 15.27580209192700","mean_motion":15.275802089999999,"eccentricity":0.0001134,"inclination_deg":43.0057,"raan_deg":37.4617,"arg_perigee_deg":267.7026,"mean_anomaly_deg":92.3696,"bstar":4.0715e-5,"rev_number":19270,"period_min":94.266735816293,"perigee_km":482.27041178621,"apogee_km":483.82652865086,"semimajor_km":6861.1854702185,"source":"CELESTRAK","updated_at":"2026-09-21T09:00:33.353697Z"}}